This is the latest recevied weather packets stored in our database for station/object F4BQN-15. If no packets are shown the sender has not sent any weather packets the latest 10 day(s).
| Time | Temp. | Humidity | Pressure | Rain* | Wind** | Luminosity | Snow |
|---|---|---|---|---|---|---|---|
| 1777626817 | 22.22° C | 35% | 995.1 hPa | - | - | - | - |
| 1777626118 | 21.67° C | 35% | 995.1 hPa | - | - | - | - |
| 1777625218 | 20.56° C | 35% | 995.2 hPa | - | - | - | - |
| 1777624687 | 20.56° C | 35% | 995.2 hPa | - | - | - | - |
| 1777623787 | 20.56° C | 35% | 995.1 hPa | - | - | - | - |
| 1777622887 | 20.56° C | 35% | 995.1 hPa | - | - | - | - |
| 1777621987 | 20° C | 35% | 995 hPa | - | - | - | - |
| 1777621087 | 19.44° C | 35% | 994.9 hPa | - | - | - | - |
| 1777620186 | 18.89° C | 35% | 994.9 hPa | - | - | - | - |
| 1777619286 | 18.33° C | 35% | 994.9 hPa | - | - | - | - |
| 1777618791 | 18.33° C | 35% | 995.1 hPa | - | - | - | - |
| 1777617891 | 18.33° C | 35% | 994.8 hPa | - | - | - | - |
| 1777616991 | 18.33° C | 35% | 994.7 hPa | - | - | - | - |
| 1777616091 | 18.89° C | 35% | 994.4 hPa | - | - | - | - |
| 1777615190 | 18.89° C | 35% | 994.4 hPa | - | - | - | - |
| 1777614952 | 18.33° C | 35% | 994.4 hPa | - | - | - | - |
| 1777614621 | 18.33° C | 36% | 994.3 hPa | - | - | - | - |
| 1777614587 | 18.33° C | 36% | 994.3 hPa | - | - | - | - |
| 1777614552 | 18.33° C | 36% | 994.3 hPa | - | - | - | - |
| 1777614497 | 17.78° C | 36% | 994.3 hPa | - | - | - | - |
| 1777614426 | 17.78° C | 36% | 994.3 hPa | - | - | - | - |
| 1777614338 | 17.78° C | 36% | 994.3 hPa | - | - | - | - |
| 1777614303 | 17.78° C | 36% | 994.2 hPa | - | - | - | - |
| 1777614269 | 17.78° C | 36% | 994.3 hPa | - | - | - | - |
| 1777614235 | 17.78° C | 36% | 994.2 hPa | - | - | - | - |
* Rain since midnight (hover to see other rain measurements)
** Current wind speed in m/s (hover to see current wind gust speed)